Location: Unspecified
(43.0833°N, 0.0000°E)
Time: 04:06:03
(UTC+00:00)

Vanguard 2 - Visible Passes

Search period start: 04 April 2026 00:00
Search period end: 14 April 2026 00:00
Orbit: 554 x 2896 km, 32.9° (Epoch: 29 March)

Date Brightness Start Highest point End Pass type
(mag) Time Alt. Az. Time Alt. Az. Time Alt. Az.
4 Apr 10.4 20:01:37 10° W 20:11:27 38° SSW 20:21:32 18° SSE visible
4 Apr 11.2 22:12:23 10° WSW 22:21:14 20° SW 22:22:27 19° SSW visible
5 Apr 10.6 20:13:41 10° W 20:23:08 33° SSW 20:32:33 18° SSE visible
5 Apr 11.4 22:26:05 10° WSW 22:32:48 15° SW 22:33:29 15° SW visible
6 Apr 10.8 20:25:55 10° WSW 20:34:49 27° SSW 20:43:38 16° SSE visible
7 Apr 11.0 20:38:24 10° WSW 20:46:29 22° SSW 20:54:45 14° S visible
8 Apr 10.3 18:41:19 10° WSW 18:48:50 33° SSW 19:00:04 10° SE visible
8 Apr 11.2 20:51:22 10° WSW 20:58:09 17° SSW 21:05:56 11° S visible
9 Apr 10.5 18:53:24 10° WSW 19:00:34 28° SSW 19:10:52 10° SSE visible
9 Apr 11.3 21:05:28 10° SW 21:09:49 12° SSW 21:14:43 10° SSW visible
10 Apr 10.7 19:05:41 10° WSW 19:12:18 23° SSW 19:21:23 10° SSE visible
11 Apr 10.9 19:18:19 10° WSW 19:24:02 18° SSW 19:31:24 10° SSE visible
12 Apr 11.1 19:31:42 10° SW 19:35:45 13° SSW 19:40:34 10° S visible
